This demonstration page uses our WeatherBlox Daily Observations layout. Learn more.

Left ArrowRight Arrow

Hourly Observations for September 8, 2021

Temp ( °F °C ) Dew Point ( °F °C ) Humidity (%) Winds ( mph kmh ) Pressure ( in mb ) Visibility ( mi km ) Precip ( " mm )
5:53 am 05:53 Clear 72 22.2 58 14.4 61 61 E 7 11 29.87 1011 10 16 0.00 0.00
6:53 am 06:53 Clear 73 22.8 59 15 62 62 SE 9 15 29.88 1012 10 16 0.00 0.00
7:53 am 07:53 Sunny 71 21.7 59 15 66 66 NE 5 7 29.90 1013 10 16 0.00 0.00
8:53 am 08:53 Sunny 75 23.9 60 15.6 60 60 Calm 29.92 1013 10 16 0.00 0.00
9:53 am 09:53 undefined 80 26.7 61 16.1 52 52 SE 5 7 29.93 1014 10 16 0.00 0.00
10:53 am 10:53 Sunny 84 28.9 61 16.1 46 46 Calm 29.95 1014 10 16 0.00 0.00
11:53 am 11:53 Sunny 90 32.2 61 16.1 38 38 ENE 7 11 29.96 1014 10 16 0.00 0.00
12:53 pm 12:53 Mostly Sunny 92 33.3 60 15.6 34 34 undefined N/A 29.95 1014 10 16 0.00 0.00
1:44 pm 13:44 Mostly Cloudy with Nearby Thunderstorms 94 34.4 59 15 31 31 VRB 7 11 29.83 1010 10 16 0.00 0.00
1:53 pm 13:53 Mostly Cloudy 93 33.9 59 15 32 32 E 13 20 29.92 1013 10 16 0.00 0.00
2:08 pm 14:08 Cloudy with Thunderstorms 92 33.3 59 15 33 33 ENE 7 11 29.83 1010 10 16 0.00 0.00
2:30 pm 14:30 Mostly Cloudy with Nearby Thunderstorms 96 35.6 57 13.9 27 27 E 7 11 29.80 1009 10 16 0.00 0.00
2:45 pm 14:45 Mostly Cloudy 95 35 57 13.9 28 28 ESE 13 20 29.81 1009 10 16 0.00 0.00
2:53 pm 14:53 Mostly Cloudy 96 35.6 57 13.9 27 27 ESE 15 24 29.90 1012 10 16 0.00 0.00
3:46 pm 15:46 Partly Cloudy with Nearby Thunderstorms 96 35.6 57 13.9 27 27 SE 12 19 29.78 1009 10 16 0.00 0.00
3:53 pm 15:53 Partly Cloudy with Nearby Thunderstorms 96 35.6 57 13.9 27 27 E 16 26 29.88 1012 10 16 0.00 0.00
4:01 pm 16:01 Partly Cloudy 95 35 56 13.3 27 27 SE 13 20 29.78 1008 10 16 0.00 0.00
4:53 pm 16:53 Mostly Cloudy 96 35.6 55 12.8 25 25 E 14 22 29.86 1011 10 16 0.00 0.00
5:53 pm 17:53 Mostly Sunny 93 33.9 55 12.8 28 28 SE 13 20 29.86 1011 10 16 0.00 0.00
6:53 pm 18:53 Sunny 93 33.9 56 13.3 29 29 E 9 15 29.87 1011 10 16 0.00 0.00
7:53 pm 19:53 Sunny 91 32.8 55 12.8 30 30 ESE 6 9 29.88 1012 10 16 0.00 0.00
8:53 pm 20:53 Clear 87 30.6 56 13.3 35 35 ESE 6 9 29.89 1012 10 16 0.00 0.00
9:53 pm 21:53 Clear 83 28.3 56 13.3 40 40 E 6 9 29.91 1013 10 16 0.00 0.00
10:53 pm 22:53 Clear 83 28.3 56 13.3 40 40 ESE 8 13 29.93 1014 10 16 0.00 0.00
11:53 pm 23:53 Clear 83 28.3 57 13.9 41 41 ESE 9 15 29.93 1014 10 16 0.00 0.00

Powered by AerisWeather